Regional Weather Roundup
Issued by NWS

Home | Current Version | Previous Version | Graphics & Text | Print | Product List | Glossary On
Versions: 1 2 3 4 5 6 7 8 9 10 11 12 13 14 15 16 17 18 19 20 21 22 23 24 25 26 27 28 29 30 31 32 33 34 35 36 37 38 39 40 41 42 43 44 45 46 47 48 49 50
000
ASUS45 KBOI 301610
RWRID
WEATHER ROUNDUP FOR IDAHO
NATIONAL WEATHER SERVICE BOISE ID
1000 AM MDT TUE SEP 30 2014

NOTE: "FAIR" INDICATES FEW OR NO CLOUDS BELOW 12000 FEET
WITH NO SIGNIFICANT WEATHER AND/OR OBSTRUCTIONS TO VISIBILITY

IDZ012-014-301700-
SOUTHWEST IDAHO


CITY           SKY/WX    TMP DP  RH WIND       PRES   REMARKS
BOISE          PTSUNNY   54  50  86 W10       29.97R
CALDWELL       MOSUNNY   55  43  62 NW16      30.01R
MOUNTAIN HOME  PTSUNNY   56  56  98 NW15      29.97R
$$

IDZ016-017-301700-
SOUTHCENTRAL IDAHO


CITY           SKY/WX    TMP DP  RH WIND       PRES   REMARKS
BURLEY         CLOUDY    52  49  89 SW6       29.94R
JEROME         CLOUDY    50  48  93 W16       29.96R
TWIN FALLS     CLOUDY    55  47  74 W21G29    29.96R
$$

IDZ019>023-301700-
SOUTHEAST IDAHO


CITY           SKY/WX    TMP DP  RH WIND       PRES   REMARKS
IDAHO FALLS    CLOUDY    51  48  89 SW14      29.92F
POCATELLO      CLOUDY    53  48  83 SW13      29.95R
REXBURG        LGT RAIN  47  44  90 SW7       29.92S
$$

IDZ006-010-011-018-031-032-301700-
CENTRAL IDAHO MOUNTAINS


CITY           SKY/WX    TMP DP  RH WIND       PRES   REMARKS
MCCALL         MOSUNNY   47  42  83 SW8       29.94R
HAILEY         PTSUNNY   46  45  93 NW6       29.95F
STANLEY          N/A     43  41  93 N6        29.96S
SALMON         CLOUDY    48  46  93 SW5       29.89R
CHALLIS        CLOUDY    48  45  89 W3        29.90S
$$

IDZ002-004-006-007-026-301700-
NORTHERN IDAHO


CITY           SKY/WX    TMP DP  RH WIND       PRES   REMARKS
LEWISTON       CLOUDY    58  41  53 W10       29.95R
LOWELL           N/A     53  51  93 CALM      29.97R
COEUR D`ALENE  CLOUDY    48  45  87 S9        29.89S
MULLAN PASS    FOG       35  35 100 VRB5      29.89R VSB<1/4 WCI  31
$$



USA.gov is the U.S. government's official web portal to all federal, state and local government web resources and services.